Find DSP F15

NORAD ID: 20929 Int'l Des: 1990-095 Owner: AFSSD2 Country: US operational
HEOCIRCULAR

Live-Position

3D-Globus wird geladen...

Über DSP F15

Beschreibung wird geladen...

Nächste Überflüge

Passes for default location (London). Set your location on the main map for personalized predictions.

Höhenverlauf

Loading altitude history...

Zweizeiliger Elementsatz

1 20929U 90095A 26106.86789862 -.00000198 00000-0 00000-0 0 9993
2 20929 14.0423 344.4692 0004012 71.9691 98.6194 0.98398853 24860
Epoch: 16. Apr. 2026 • Age: 9 hours

Aktueller Status

Höhe 36332.7 km
Geschwindigkeit 3.05 km/s
Subsatellitenpunkt -11.78°S, 4.15°W
Startdatum 13. Nov. 1990
Alter 35.4 years
Typ military

Technische Details

Klassifizierung Payload
Masse 2380.00 kg
Trockenmasse 2200.00 kg
Gesamtmasse 2380.00 kg
Länge 10.00 m
Durchmesser 3.30 m
Spannweite 11.50 m
Form Cyl + 4 Pan
Hersteller TRW
Bus-Typ DSP B14
Phasenstatus Unknown Transfer Status
Besitzer/Staat AFSSD2/US

Most Searched